Time,TemperatureF,DewpointF,PressureIn,WindDirection,WindDirectionDegrees,WindSpeedMPH,WindSpeedGustMPH,Humidity,HourlyPrecipIn,Conditions,Clouds,dailyrainin,SolarRadiationWatts/m^2,SoftwareType,DateUTC
2013-01-19 00:04:00,29.0,28.0,-100.00,ESE,118,0.0,4.0,97,0.00,,,0.50,0.000000,,2013-01-19 05:04:00,
2013-01-19 00:33:00,28.0,28.0,-100.00,South,191,1.0,4.0,98,0.00,,,0.44,0.000000,,2013-01-19 05:33:00,
2013-01-19 00:43:00,28.0,28.0,-100.00,South,191,1.0,4.0,98,0.00,,,0.44,0.000000,,2013-01-19 05:43:00,
2013-01-19 00:53:00,28.0,28.0,-100.00,South,191,1.0,4.0,98,0.00,,,0.44,0.000000,,2013-01-19 05:53:00,
2013-01-19 01:03:00,28.0,28.0,-100.00,South,191,1.0,4.0,98,0.00,,,0.44,0.000000,,2013-01-19 06:03:00,
2013-01-19 01:33:00,28.0,28.0,-100.00,ESE,123,0.0,4.0,98,0.00,,,0.37,0.000000,,2013-01-19 06:33:00,
2013-01-19 01:43:00,28.0,28.0,-100.00,ESE,123,0.0,4.0,98,0.00,,,0.37,0.000000,,2013-01-19 06:43:00,
2013-01-19 01:53:00,28.0,28.0,-100.00,ESE,123,0.0,4.0,98,0.00,,,0.37,0.000000,,2013-01-19 06:53:00,
2013-01-19 02:02:00,28.0,28.0,-100.00,ESE,123,0.0,4.0,98,0.00,,,0.37,0.000000,,2013-01-19 07:02:00,
2013-01-19 02:33:00,28.0,28.0,-100.00,East,86,3.0,5.0,98,0.00,,,0.28,0.000000,,2013-01-19 07:33:00,
2013-01-19 02:43:00,28.0,28.0,-100.00,East,86,3.0,5.0,98,0.00,,,0.28,0.000000,,2013-01-19 07:43:00,
2013-01-19 02:53:00,28.0,28.0,-100.00,East,86,3.0,5.0,98,0.00,,,0.28,0.000000,,2013-01-19 07:53:00,
2013-01-19 03:02:00,28.0,28.0,-100.00,East,86,3.0,5.0,98,0.00,,,0.28,0.000000,,2013-01-19 08:02:00,
2013-01-19 03:33:00,27.0,27.0,-100.00,ESE,114,1.0,4.0,98,0.00,,,0.28,0.000000,,2013-01-19 08:33:00,
2013-01-19 03:43:00,27.0,27.0,-100.00,ESE,114,1.0,4.0,98,0.00,,,0.28,0.000000,,2013-01-19 08:43:00,
2013-01-19 03:53:00,27.0,27.0,-100.00,ESE,114,1.0,4.0,98,0.00,,,0.28,0.000000,,2013-01-19 08:53:00,
2013-01-19 04:02:00,27.0,27.0,-100.00,ESE,114,1.0,4.0,98,0.00,,,0.28,0.000000,,2013-01-19 09:02:00,
2013-01-19 04:33:00,27.0,26.0,-100.00,ESE,102,2.0,4.0,97,0.00,,,0.28,0.000000,,2013-01-19 09:33:00,
2013-01-19 04:43:00,27.0,26.0,-100.00,ESE,102,2.0,4.0,97,0.00,,,0.28,0.000000,,2013-01-19 09:43:00,
2013-01-19 04:53:00,27.0,26.0,-100.00,ESE,102,2.0,4.0,97,0.00,,,0.28,0.000000,,2013-01-19 09:53:00,
2013-01-19 05:02:00,27.0,26.0,-100.00,ESE,102,2.0,4.0,97,0.00,,,0.28,0.000000,,2013-01-19 10:02:00,
2013-01-19 05:33:00,26.0,25.0,-100.00,ESE,122,2.0,5.0,97,0.00,,,0.28,0.000000,,2013-01-19 10:33:00,
2013-01-19 05:43:00,26.0,25.0,-100.00,ESE,122,2.0,5.0,97,0.00,,,0.28,0.000000,,2013-01-19 10:43:00,
2013-01-19 05:53:00,26.0,25.0,-100.00,ESE,122,2.0,5.0,97,0.00,,,0.28,0.000000,,2013-01-19 10:53:00,
2013-01-19 06:03:00,26.0,25.0,-100.00,ESE,122,2.0,5.0,97,0.00,,,0.28,0.000000,,2013-01-19 11:03:00,
2013-01-19 07:48:00,25.0,24.0,-100.00,East,101,1.0,4.0,96,0.00,,,0.28,0.000000,,2013-01-19 12:48:00,
2013-01-19 08:03:00,25.0,24.0,-100.00,East,101,1.0,4.0,96,0.00,,,0.28,0.000000,,2013-01-19 13:03:00,
2013-01-19 08:34:00,24.0,23.0,-100.00,East,100,1.0,3.0,96,0.00,,,0.28,4.000000,,2013-01-19 13:34:00,
2013-01-19 08:43:00,24.0,23.0,-100.00,East,100,1.0,3.0,96,0.00,,,0.28,4.000000,,2013-01-19 13:43:00,
2013-01-19 08:54:00,24.0,23.0,-100.00,East,100,1.0,3.0,96,0.00,,,0.28,4.000000,,2013-01-19 13:54:00,
2013-01-19 09:03:00,24.0,23.0,-100.00,East,100,1.0,3.0,96,0.00,,,0.28,4.000000,,2013-01-19 14:03:00,
2013-01-19 09:34:00,27.0,26.0,-100.00,ESE,123,0.0,0.0,96,0.00,,,0.28,37.000000,,2013-01-19 14:34:00,
2013-01-19 09:43:00,27.0,26.0,-100.00,ESE,123,0.0,0.0,96,0.00,,,0.28,37.000000,,2013-01-19 14:43:00,
2013-01-19 09:54:00,27.0,26.0,-100.00,ESE,123,0.0,0.0,96,0.00,,,0.28,37.000000,,2013-01-19 14:54:00,
2013-01-19 10:03:00,27.0,26.0,-100.00,ESE,123,0.0,0.0,96,0.00,,,0.28,37.000000,,2013-01-19 15:03:00,
2013-01-19 10:34:00,35.0,34.0,-100.00,SSW,205,0.0,1.0,95,0.01,,,0.23,294.000000,,2013-01-19 15:34:00,
2013-01-19 10:43:00,35.0,34.0,-100.00,SSW,205,0.0,1.0,95,0.01,,,0.23,294.000000,,2013-01-19 15:43:00,
2013-01-19 10:53:00,35.0,34.0,-100.00,SSW,205,0.0,1.0,95,0.01,,,0.23,294.000000,,2013-01-19 15:53:00,
2013-01-19 11:03:00,35.0,34.0,-100.00,SSW,205,0.0,1.0,95,0.01,,,0.23,294.000000,,2013-01-19 16:03:00,
2013-01-19 11:33:00,44.0,40.0,-100.00,WNW,286,2.0,3.0,86,0.00,,,0.16,555.000000,,2013-01-19 16:33:00,
2013-01-19 11:43:00,44.0,40.0,-100.00,WNW,286,2.0,3.0,86,0.00,,,0.16,555.000000,,2013-01-19 16:43:00,
2013-01-19 11:54:00,44.0,40.0,-100.00,WNW,286,2.0,3.0,86,0.00,,,0.16,555.000000,,2013-01-19 16:54:00,
2013-01-19 12:03:00,44.0,40.0,-100.00,WNW,286,2.0,3.0,86,0.00,,,0.16,555.000000,,2013-01-19 17:03:00,
2013-01-19 12:05:00,53.0,38.0,-100.00,ENE,74,2.0,5.0,56,0.00,,,0.04,667.000000,,2013-01-19 17:05:00,
2013-01-19 12:38:00,53.0,38.0,-100.00,ENE,74,2.0,5.0,56,0.00,,,0.04,667.000000,,2013-01-19 17:38:00,
2013-01-19 12:50:00,53.0,38.0,-100.00,ENE,74,2.0,5.0,56,0.00,,,0.04,667.000000,,2013-01-19 17:50:00,
2013-01-19 12:55:00,53.0,38.0,-100.00,ENE,74,2.0,5.0,56,0.00,,,0.04,667.000000,,2013-01-19 17:55:00,
2013-01-19 13:05:00,56.0,14.0,-100.00,WSW,245,6.0,10.0,19,0.00,,,0.01,727.000000,,2013-01-19 18:05:00,
2013-01-19 13:38:00,56.0,14.0,-100.00,WSW,245,6.0,10.0,19,0.00,,,0.01,727.000000,,2013-01-19 18:38:00,
2013-01-19 14:03:00,56.0,14.0,-100.00,WSW,245,6.0,10.0,19,0.00,,,0.01,727.000000,,2013-01-19 19:03:00,
2013-01-19 14:05:00,58.0,13.0,-100.00,SW,225,5.0,9.0,17,0.00,,,0.01,706.000000,,2013-01-19 19:05:00,
2013-01-19 14:40:00,58.0,13.0,-100.00,SW,225,5.0,9.0,17,0.00,,,0.01,706.000000,,2013-01-19 19:40:00,
2013-01-19 14:50:00,58.0,13.0,-100.00,SW,225,5.0,9.0,17,0.00,,,0.01,706.000000,,2013-01-19 19:50:00,
2013-01-19 14:59:00,58.0,13.0,-100.00,SW,225,5.0,9.0,17,0.00,,,0.01,706.000000,,2013-01-19 19:59:00,
2013-01-19 15:05:00,57.0,11.0,-100.00,SW,234,5.0,12.0,16,0.00,,,0.01,609.000000,,2013-01-19 20:05:00,
2013-01-19 15:40:00,57.0,11.0,-100.00,SW,234,5.0,12.0,16,0.00,,,0.01,609.000000,,2013-01-19 20:40:00,
2013-01-19 15:50:00,57.0,11.0,-100.00,SW,234,5.0,12.0,16,0.00,,,0.01,609.000000,,2013-01-19 20:50:00,
2013-01-19 15:59:00,57.0,11.0,-100.00,SW,234,5.0,12.0,16,0.00,,,0.01,609.000000,,2013-01-19 20:59:00,
2013-01-19 16:05:00,56.0,17.0,-100.00,WSW,237,7.0,14.0,21,0.00,,,0.01,462.000000,,2013-01-19 21:05:00,
2013-01-19 16:48:00,56.0,17.0,-100.00,WSW,237,7.0,14.0,21,0.00,,,0.01,462.000000,,2013-01-19 21:48:00,
2013-01-19 16:54:00,56.0,17.0,-100.00,WSW,237,7.0,14.0,21,0.00,,,0.01,462.000000,,2013-01-19 21:54:00,
2013-01-19 17:05:00,52.0,19.0,-100.00,SSW,208,4.0,13.0,27,0.00,,,0.01,225.000000,,2013-01-19 22:05:00,
2013-01-19 17:36:00,52.0,19.0,-100.00,SSW,208,4.0,13.0,27,0.00,,,0.01,225.000000,,2013-01-19 22:36:00,
2013-01-19 17:49:00,52.0,19.0,-100.00,SSW,208,4.0,13.0,27,0.00,,,0.01,225.000000,,2013-01-19 22:49:00,
2013-01-19 17:59:00,52.0,19.0,-100.00,SSW,208,4.0,13.0,27,0.00,,,0.01,225.000000,,2013-01-19 22:59:00,
2013-01-19 18:05:00,45.0,18.0,-100.00,West,263,1.0,8.0,33,0.00,,,0.01,31.000000,,2013-01-19 23:05:00,
2013-01-19 18:35:00,45.0,18.0,-100.00,West,263,1.0,8.0,33,0.00,,,0.01,31.000000,,2013-01-19 23:35:00,
2013-01-19 19:38:00,40.0,30.0,-100.00,ENE,77,2.0,4.0,66,0.00,,,0.01,0.000000,,2013-01-20 00:38:00,
2013-01-19 19:58:00,40.0,30.0,-100.00,ENE,77,2.0,4.0,66,0.00,,,0.01,0.000000,,2013-01-20 00:58:00,
2013-01-19 20:05:00,36.0,29.0,-100.00,ENE,74,4.0,6.0,74,0.00,,,0.01,0.000000,,2013-01-20 01:05:00,
2013-01-19 20:39:00,36.0,29.0,-100.00,ENE,74,4.0,6.0,74,0.00,,,0.01,0.000000,,2013-01-20 01:39:00,
2013-01-19 20:52:00,36.0,29.0,-100.00,ENE,74,4.0,6.0,74,0.00,,,0.01,0.000000,,2013-01-20 01:52:00,
2013-01-19 21:05:00,33.0,29.0,-100.00,East,79,3.0,7.0,84,0.00,,,0.01,0.000000,,2013-01-20 02:05:00,
2013-01-19 21:38:00,33.0,29.0,-100.00,East,79,3.0,7.0,84,0.00,,,0.01,0.000000,,2013-01-20 02:38:00,
2013-01-19 21:45:00,33.0,29.0,-100.00,East,79,3.0,7.0,84,0.00,,,0.01,0.000000,,2013-01-20 02:45:00,
2013-01-19 21:59:00,33.0,29.0,-100.00,East,79,3.0,7.0,84,0.00,,,0.01,0.000000,,2013-01-20 02:59:00,
2013-01-19 22:05:00,32.0,28.0,-100.00,East,86,3.0,7.0,86,0.00,,,0.01,0.000000,,2013-01-20 03:05:00,
2013-01-19 22:39:00,32.0,28.0,-100.00,East,86,3.0,7.0,86,0.00,,,0.01,0.000000,,2013-01-20 03:39:00,
2013-01-19 22:47:00,32.0,28.0,-100.00,East,86,3.0,7.0,86,0.00,,,0.01,0.000000,,2013-01-20 03:47:00,
2013-01-19 22:58:00,32.0,28.0,-100.00,East,86,3.0,7.0,86,0.00,,,0.01,0.000000,,2013-01-20 03:58:00,
2013-01-19 23:38:00,31.0,28.0,-100.00,ENE,70,4.0,7.0,90,0.00,,,0.01,0.000000,,2013-01-20 04:38:00,
2013-01-19 23:45:00,31.0,28.0,-100.00,ENE,70,4.0,7.0,90,0.00,,,0.01,0.000000,,2013-01-20 04:45:00,